This is the latest recevied weather packets stored in our database for station/object HB9FHL-13. If no packets are shown the sender has not sent any weather packets the latest 1 day(s).
| Time | Temp. | Humidity | Pressure | Rain* | Wind** | Luminosity | Snow |
|---|---|---|---|---|---|---|---|
| 1778068781 | 10.56° C | - | 1005.2 hPa | 0.25 mm | - | - | - |
| 1778068478 | 11.11° C | - | 1004.8 hPa | 0.25 mm | - | - | - |
| 1778067877 | 11.11° C | - | 1005.2 hPa | 0 mm | - | - | - |
| 1778067576 | 11.67° C | - | 1006.7 hPa | 0 mm | - | - | - |
| 1778064868 | 12.78° C | - | 1007.7 hPa | 0 mm | - | - | - |
| 1778063063 | 12.22° C | - | 1008.1 hPa | 0 mm | - | - | - |
| 1778062762 | 12.22° C | - | 1007.1 hPa | 0 mm | - | - | - |
| 1778062461 | 12.78° C | - | 1004.9 hPa | 0 mm | - | - | - |
| 1778062161 | 12.78° C | - | 1006.8 hPa | 0 mm | - | - | - |
| 1778061860 | 12.22° C | - | 1004.9 hPa | 0 mm | - | - | - |
| 1778061560 | 12.22° C | - | 1003.8 hPa | 0 mm | - | - | - |
| 1778060956 | 12.78° C | - | 1007.1 hPa | 0 mm | - | - | - |
| 1778060655 | 12.78° C | - | 1006.5 hPa | 0 mm | - | - | - |
| 1778059752 | 12.78° C | - | 1006.8 hPa | 0 mm | - | - | - |
| 1778059451 | 12.22° C | - | 1005.4 hPa | 0 mm | - | - | - |
| 1778058849 | 12.22° C | - | 1004.2 hPa | 0 mm | - | - | - |
| 1778058248 | 12.78° C | - | 1007.2 hPa | 0 mm | - | - | - |
| 1778057949 | 12.22° C | - | 1005.4 hPa | 0 mm | - | - | - |
| 1778057347 | 12.22° C | - | 1006 hPa | 0 mm | - | - | - |
| 1778057045 | 12.22° C | - | 1009.4 hPa | 0 mm | - | - | - |
| 1778056444 | 11.67° C | - | 1005.6 hPa | 0 mm | - | - | - |
| 1778055543 | 11.67° C | - | 1005.8 hPa | 0 mm | - | - | - |
| 1778054637 | 12.22° C | - | 1006.6 hPa | 0 mm | - | - | - |
| 1778054336 | 11.11° C | - | 1007.6 hPa | 0 mm | - | - | - |
| 1778054036 | 11.11° C | - | 1005.6 hPa | 0 mm | - | - | - |
* Rain since midnight (hover to see other rain measurements)
** Current wind speed in m/s (hover to see current wind gust speed)